Home > Weather > Lexington-Fayette > Past weeks

Flag for USA Past Weather in Lexington-Fayette, Kentucky, USA — Yesterday and Last 2 Weeks

Now
63 °F

Clear.


Feels Like: 63 °F
Forecast: 60 / 83 °F
Wind: No wind

Location: Blue Grass Airport

Current Time: May 31, 2016 at 6:10:27 AM

Latest Report: May 31, 2016 at 4:54 AM


Visibility: 10 mi

Pressure: 29.96 "Hg

Humidity: 87%

Dew Point: 59 °F

Location of Lexington-FayetteLocation

Past Weather in Lexington-Fayette — Graph

°F

Lexington-Fayette Temperature Yesterday

Maximum temperature yesterday: 85 °F (at 2:54 PM)
Minimum temperature yesterday: 64 °F (at 5:54 AM)
Average temperature yesterday: 75 °F

High & Low Weather Summary for the Past Weeks

 TemperatureHumidityPressure
High86 °F (May 29, 4:54 PM)97% (May 22, 6:54 AM)30.29 "Hg (May 22, 6:54 AM)
Low40 °F (May 16, 4:54 AM)30% (May 24, 4:54 PM)29.92 "Hg (May 22, 7:54 PM)
Average65 °F70%30.07 "Hg
* Reported May 16 3:54 AM — May 31 3:54 AM, Lexington-Fayette, Weather by CustomWeather, © 2016

Note: Actual official high and low records may vary slightly from our data, if they occured in-between our weather recording intervals... More about our weather records

Advertising

Lexington-Fayette Weather History for the Previous 24 Hours

Scroll right to see more
 ConditionsComfort  
Time TempWeatherWind HumidityBarometerVisibility
3:54 AM
Tue, May 31
65 °FClear.No wind81%29.96 "Hg10 mi
2:54 AM64 °FClear.No wind84%29.97 "Hg10 mi
1:54 AM67 °FClear.No wind79%29.97 "Hg10 mi
12:54 AM66 °FClear.No wind81%29.98 "Hg10 mi
11:54 PM
Mon, May 30
68 °FClear.No wind76%29.98 "Hg10 mi
10:54 PM69 °FClear.3 mph73%29.99 "Hg10 mi
9:54 PM74 °FClear.No wind62%29.98 "Hg10 mi
8:54 PM78 °FSunny.3 mph50%29.97 "Hg10 mi
7:54 PM81 °FSunny.7 mph45%29.96 "Hg10 mi
6:54 PM84 °FSunny.8 mph41%29.96 "Hg10 mi
5:54 PM85 °FSunny.8 mph43%29.97 "Hg10 mi
4:54 PM85 °FScattered clouds.9 mph42%29.98 "Hg10 mi
3:54 PM84 °FSunny.10 mph46%30.00 "Hg10 mi
2:54 PM85 °FPassing clouds.10 mph45%30.01 "Hg10 mi
1:54 PM84 °FSunny.5 mph46%30.01 "Hg10 mi
12:54 PM83 °FSunny.6 mph50%30.02 "Hg10 mi
11:54 AM82 °FSunny.7 mph55%30.04 "Hg10 mi
10:54 AM79 °FSunny.3 mph60%30.04 "Hg10 mi
9:54 AM76 °FSunny.No wind72%30.03 "Hg10 mi
8:54 AM72 °FSunny.3 mph78%30.03 "Hg10 mi
7:54 AM67 °FFog.No wind90%30.03 "Hg5 mi
6:54 AM65 °FFog.No wind91%30.02 "Hg5 mi
Weather by CustomWeather, © 2016

See weather overviewHow to use our weather pages